Location: Banska Bystrica
(48.7333°N, 19.1500°E)
Time: 10:31:35
(UTC+01:00)

ISS - Pass Details

Date: 26 January 2021
Orbit: 417 x 422 km, 51.6° (Epoch: 07 March)

Event Time Altitude Azimuth Distance (km) Brightness Sun altitude
Rises 17:10:09 0° 252° (WSW) 2,366 2.8 -6.6°
Reaches altitude 10° 17:12:14 10° 253° (WSW) 1,504 0.9 -6.9°
Maximum altitude 17:15:37 80° 339° (NNW) 433 -3.7 -7.4°
Enters shadow 17:18:55 11° 69° (ENE) 1,469 -1.7 -7.9°
